Location: *
(37.5724°S, 58.0067°E)
Time: 11:41:11
(UTC+00:00)

CZ-3A R/B - Pass Details

Date: 26 September 2020
Orbit: 1235 x 30311 km, 55.4° (Epoch: 30 October)

Event Time Altitude Azimuth Distance (km) Brightness Sun altitude
Rises 15:04:41 0° 226° (SW) 4,195 7.4 -11.9°
Reaches altitude 10° 15:06:47 10° 227° (SW) 3,271 6.7 -12.3°
Maximum altitude 15:13:16 78° 313° (NW) 1,812 4.4 -13.6°
Drops below altitude 10° 15:32:07 10° 35° (NE) 8,751 7.4 -17.2°
Sets 15:44:25 0° 35° (NE) 12,904 8.3 -19.5°
